Погода в Жезказгане

Хотите узнать прогноз погоды в Жезказгане? Тогда Вам сюда: Погода в Жезказгане

Поиск расширенной информации на нашем сайте:

Полезная информация:

Новости сайта



02.01.2020
Опубликован Долгосрочный прогноз погоды по городам России и ближнего зарубежья на январь 2020 года.
Карты: Прогноз на январь и февраль 2020 года, Сравнение прогнозируемой аномалии приземной температуры воздуха на январь 2020 года по разным моделям.




Погода в Жезказгане - сегодня

Время (UTC), дата Ветер
(°,м/с) 
Видим.   Явления Облачность Т
(°С)
Тd
(°С)
f(%) Тe
(°С)
Pmin
(гПа)
dP
(гПа)
Po
(мм)
O2
(г/м3)
Тmin Tmax R s Состояние
почвы
06 05.04.20 280 (З) 20000 м    ясно 
+12.6 +3.8 55 +12  1017.7  0.2  733  282  +6.7       
09 05.04.20 270 (З) 20000 м    5/5 600 м кучево-дожд. 
[Cb cap]
+15 +1.7 41 +15  1016.9  -0.4  732  279           
12 05.04.20 270 (З) 20000 м    8/8 600 м 
[Sc]
+12.6 -1.1 39 +12  1018.1  0.8  733  282           
15 05.04.20 280 (З) 20000 м    5/5 600 м 
[Sc]
+9 +0.1 54 +8  1019.7  734  286    +16       
18 05.04.20 230 (ЮЗ) 20000 м    ясно 
+4.2 +0 74 +5  1020.6  0.2  734  291    +16       
21 05.04.20 230 (ЮЗ) 20000 м    ясно 
+2.4 -0.6 81 +3  1020.3  -0.6  733  293           
00 06.04.20 230 (ЮЗ) 20000 м    ясно 
+1.7 -0.8 83 +2  1020.3  -0.2  733  294           
03 06.04.20 тихо ()   20000 м    5/0 верхняя 
[Ci fib]
+4.9 +2.2 83 +5  1020.2  0.4  734  290           
06 06.04.20 200 (Ю) 20000 м    9/4 600 м верхняя 
[Sc|Ci sp]
+12.6 +4.9 59 +12  1018.6  -0.4  733  282  +1.6         
09 06.04.20 210 (ЮЗ) 20000 м    8/3 600 м верхняя 
[Sc|Ci sp]
+15.6 +0.4 35 +16  1016.5  -1.5  732  279           
12 06.04.20 200 (Ю) 20000 м    8/0 верхняя 
[Ci sp]
+16.6 -1.4 29 +17  1015.2  -1.2  731  278           
15 06.04.20 180 (Ю) 20000 м    9/4 600 м верхняя 
[Sc|Ci sp]
+12.1 -1.2 40 +12  1014.5  -1.3  730  282    +17.3       
18 06.04.20 180 (Ю) 20000 м    8/8 600 м 
[Sc]
+9.9 -0.2 49 +11  1012.6  -2  729  283    +17.3       
21 06.04.20 180 (Ю) 20000 м    9/9 600 м 
[Sc]
+9.5 -0.1 51 +11  1009.7  -2.9  727  283           
00 07.04.20 180 (Ю) 20000 м    9/9 600 м 
[Sc]
+8.6 -0.4 53 +9  1006.8  -3  724  283           
03 07.04.20 190 (Ю) 20000 м    10/10 600 м 
[Sc]
+10.5 +1.1 52 +9  1003  -3.4  722  280           
06 07.04.20 230 (ЮЗ) 15-19  20000 м  {дождь}  10/10 600 м 
[Sc]
+4.8 -0.7 68 1007.8  3.9  725  287  +8.5         
09 07.04.20 260 (З) 15-19{21}  20000 м    8/8 600 м 
[Sc]
+7.4 -5.1 41 +3  1010.2  2.6  727  286           
12 07.04.20 260 (З) 15-18{20}  20000 м    8/8 600 м кучево-дожд. 
[Cb cap]
+5.8 -4.9 46 +1  1013.9  3.3  729  288           
15 07.04.20 250 (З) 13-16{1}  20000 м    6/5 600 м кучево-дожд., верхняя 
[Cb cap|Ci fib]
+4.2 -5 51 1017  2.7  731  291    +10.5       
18 07.04.20 270 (З) 10-15  20000 м    8/4 600 м верхняя 
[Sc|Ci fib]
+0 -4 74 -5  1021  3.3  734  296    +10.5  0.0     
21 07.04.20 270 (З) 8{15}  20000 м    6/0 верхняя 
[Ci fib]
-2.5 -6.1 76 -7  1022.7  1.2  734  299           
00 08.04.20 270 (З) 20000 м    5/0 верхняя 
[Ci fib]
-6.8 -9.2 83 -9  1024.6  1.1  735  305           
03 08.04.20 260 (З) 20000 м    8/0 средняя, верхняя 
[Ac lent|Ci fib]
-3 -5.3 84 -4  1025.1  1.1  736  300           
06 08.04.20 270 (З) 20000 м    8/4 600 м средняя, верхняя 
[Sc|Ac lent|Ci fib]
+4.5 -7.1 43 +3  1023.7  -0.2  736  292  -7.2         
Время (UTC), дата Ветер
(°,м/с) 
Видим.   Явления Облачность Т
(°С)
Тd
(°С)
f(%) Тe
(°С)
Pmin
(гПа)
dP
(гПа)
Po
(мм)
O2
(г/м3)
Тmin Tmax R s Состояние
почвы

Для получения пояснительной информации подведите курсор к названию столбца.

ПОГОДА в Жезказгане - архив

Всё, что Вы хотите узнать о погоде в Жезказгане - удобно и подробно!

Выберите нужную дату (начиная с 1 января 2019* года) и нажмите кнопку "Найти".
Будут отображены архивные сводки погоды по пункту Жезказган, начиная с указанной даты.


Отображать данные в формате CSV (для использования в таблицах Excel)


Внимание! Наш архив погоды предназначен исключительно для личного некоммерческого использования в познавательных целях. Если Вам необходимы официальные справки о состоянии погоды (для производственных, юридических, коммерческих и т.п. целей), обращайтесь в органы Росгидромета.

*Примечание: данная дата относится к архиву по метеостанциям СССР (Россия, СНГ, Балтия).
Архив по метеостанциям Зарубежной Европы и Азии (кроме Китая) хранится 10 дней, по другим регионам земного шара (Китай, Африка, Америка, Австралия, Океания) - 1 день.

Жезказган - район местоположения метеостанции


Название, широта, долгота, высота метеостанции:
Жезказган 47.8°ш. 67.7°д. 346 м над ур. моря [Казахстан]

Дополнительная информация

В oтличие oт бoльшинства пoгoдных сайтoв мы публикуем пoдрoбную метеoинфoрмацию в детальнoм прoфессиoнальнoм фoрмате.

Характеристики температуры и влажнoсти вoздуха измеряются на высoте 2 м в тени вдали oт зданий и деревьев.
Скoрoсть ветра измеряется на высoте 10 м (на урoвне рoста челoвека скoрoсть ветра ниже в 1.5-2 раза). Если метеoстанция нахoдится в гoрoде или в лесу, тo скoрoсть ветра занижена на 2-4 м/с пo сравнению с oткрытым местoм. Скoрoсть ветра над акватoриями крупных рек и oзёр, а также на вершинах хoлмoв на 2-5 м/с выше, чем в oбычных услoвиях.
Атмoсфернoе давление в разных тoчках местнoсти мoжет значительнo oтличаться oт давления на метеoстанции, в зависимoсти oт услoвий рельефа (при пoдъёме на 10 м давление пoнижается примернo на 1 мм рт.ст.).